Miscellaneous Local Product
Issued by NWS North Platte, NE

Home | Current Version | Previous Version | Graphics & Text | Print | Product List | Glossary On
Versions: 1 2 3 4 5 6 7 8 9 10 11 12 13 14 15 16 17 18 19 20 21 22 23 24 25 26 27 28 29 30 31 32 33 34 35 36 37 38 39 40 41 42 43 44 45 46 47 48 49 50
000
AXUS43 KLBF 241310
MISLBF


WESTERN AND NORTH CENTRAL NEBRASKA HOURLY WEATHER ROUNDUP
NATIONAL WEATHER SERVICE NORTH PLATTE NE
800 AM CDT SUN MAY 24 2015

***STATIONS NOT REPORTING VARIABLES SUCH AS SKY/WEATHER OR
PRESSURE ARE PROVIDED BY THE NEBRASKA DEPARTMENT OF
ROADS...RAWS...AND APRS NETWORKS...AND ARE NOT UNDER
NATIONAL WEATHER SERVICE QUALITY CONTROL***

...OBSERVATIONS IN AND NEAR THE EASTERN PANHANDLE OF NEBRASKA...

CITY           SKY/WX    TMP DP  RH WIND       PRES   REMARKS
PINE RIDGE     LGT RAIN  53  51  93 E10       29.92S FOG
CHADRON        RAIN      52  51  97 E5        29.92S FOG
ALLIANCE       CLOUDY    52  50  93 NE7       29.88F
SIDNEY         PTSUNNY   49  49 100 NW3       29.90F
WHITECLAY        N/A     51  50  95 CALM        N/A
BIG SPRINGS      N/A     56  55  97 S5          N/A
$$

...OBSERVATIONS IN NORTH CENTRAL NEBRASKA...

CITY           SKY/WX    TMP DP  RH WIND       PRES   REMARKS
VALENTINE      LGT RAIN  55  54  96 E9        29.93S
THEDFORD       DRIZZLE   56  56  98 E5        29.92F
AINSWORTH      DRIZZLE   55  55 100 E6        29.93F
O`NEILL        FOG       58  58  99 NE6       29.93S VSB 1/2
ORD            CLOUDY    58  57  97 CALM      29.89F FOG
BROKEN BOW     CLOUDY    59  57  93 E5        29.90F
VALENTINE NWR    N/A     53  53  99 E7          N/A
SPRINGVIEW       N/A     55  54  96 CALM        N/A
ROSE             N/A     58  58  99 NE6         N/A
NEWPORT          N/A     56  56  99 E7          N/A
SARGENT          N/A     57  57  99 CALM        N/A
COMSTOCK         N/A     62  62  99 E5          N/A
EWING            N/A     58  57  98 NE3         N/A
$$

...OBSERVATIONS IN SOUTHWEST NEBRASKA AND FAR NORTHEAST COLORADO...

CITY           SKY/WX    TMP DP  RH WIND       PRES   REMARKS
WRAY           CLOUDY   N/A N/A N/A SW5       29.89S
IMPERIAL       CLOUDY    54  52  93 S9        29.89R
OGALLALA       CLOUDY    55  55  99 S5        29.89R
NORTH PLATTE   CLOUDY    57  55  93 E9        29.88F
MCCOOK         CLOUDY    56  56 100 SE7       29.88S FOG
LEXINGTON      CLOUDY    58  58  98 CALM      29.89F
PAXTON           N/A     55  54  97 CALM        N/A
GOTHENBURG       N/A     57  54  91 E3          N/A
CALLAWAY         N/A     57  57 100 E5          N/A
$$

...NORTH PLATTE AREA...

CITY           SKY/WX    TMP DP  RH WIND       PRES   REMARKS
AIRPORT        CLOUDY    57  55  93 E9        29.88F
DOWNTOWN         N/A     56  55  96 CALM        N/A
$$

...SOME WEATHER OBSERVATIONS FROM AROUND THE REGION...

CITY           SKY/WX    TMP DP  RH WIND       PRES   REMARKS
DENVER         MOSUNNY   46  42  86 SE5       29.91F
LARAMIE        CLOUDY    40  37  89 S7        29.94S
CHEYENNE       SUNNY     41  39  93 W5        29.93S
SCOTTSBLUFF    CLOUDY    52  51  97 S3        29.90S
RAPID CITY     LGT RAIN  52  52 100 E13       29.95S FOG
PIERRE         CLOUDY    56  53  90 NE6       29.98R
WINNER         LGT RAIN  56  54  93 NE9       29.95S VSB<1/4
SIOUX FALLS    LGT RAIN  60  58  92 E8        29.95F
OMAHA          DRIZZLE   61  60  97 E10       29.88S FOG
GRAND ISLAND   FOG       59  58  96 SE3       29.90F VSB 1/4
KANSAS CITY    LGT RAIN  64  64 100 S8        29.90R FOG
WICHITA        CLOUDY    61  59  93 SE7       29.90S
HAYS           CLOUDY    55  52  88 SE9       29.88F VSB<1/4
LIBERAL        PTSUNNY   61  55  82 S5        29.88R
GOODLAND       CLOUDY    53  52  96 W5        29.89F
$$



USA.gov is the U.S. government's official web portal to all federal, state and local government web resources and services.